Location: Unnamed
(51.8936°N, 11.0665°E)
Time: 02:53:04
(UTC+02:00)

UKube-1 - Pass Details

Date: 26 September 2021
Orbit: 611 x 617 km, 98.4° (Epoch: 24 October)

Event Time Altitude Azimuth Distance (km) Brightness Sun altitude
Rises 23:37:07 0° 4° (N) 2,893 ? -36.3°
Reaches altitude 10° 23:39:50 10° 346° (NNW) 1,983 ? -36.5°
Enters shadow 23:41:27 16° 326° (NW) 1,612 ? -36.6°
